| time (UTC) | temp F | wind direction | speed knots | gust knots | rain 1hr in | rain 24hr in | rain mn in | humidity % | barometer mb |
| 20260906140041 | 66 | 40 | 1.7 | 6.1 | 0.00 | 0.00 | 0.00 | 97 | 1020.4 |
| 20260906135520 | 67 | 113 | 1.7 | 6.1 | 0.00 | 0.00 | 0.00 | 97 | 1020.4 |
| 20260906135018 | 66 | 0 | 0.9 | 6.1 | 0.00 | 0.00 | 0.00 | 97 | 1020.3 |
| 20260906134536 | 66 | 91 | 2.6 | 5.2 | 0.00 | 0.00 | 0.00 | 97 | 1020.4 |
| 20260906134016 | 66 | 35 | 2.6 | 4.3 | 0.00 | 0.00 | 0.00 | 97 | 1020.5 |
| 20260906133519 | 66 | 40 | 1.7 | 4.3 | 0.00 | 0.00 | 0.00 | 97 | 1020.6 |
| 20260906133036 | 65 | 49 | 1.7 | 4.3 | 0.00 | 0.00 | 0.00 | 97 | 1020.6 |
| 20260906132516 | 65 | 49 | 2.6 | 4.3 | 0.00 | 0.00 | 0.00 | 97 | 1020.6 |
| 20260906132021 | 65 | 38 | 0.9 | 3.5 | 0.00 | 0.00 | 0.00 | 97 | 1020.5 |
| 20260906131538 | 64 | 0 | 0.0 | 2.6 | 0.00 | 0.00 | 0.00 | 97 | 1020.4 |
| 20260906131021 | 64 | 20 | 0.0 | 2.6 | 0.00 | 0.00 | 0.00 | 97 | 1020.5 |
| 20260906130520 | 64 | 28 | 1.7 | 2.6 | 0.00 | 0.00 | 0.00 | 97 | 1020.4 |
| 20260906130041 | 64 | 347 | 0.0 | 2.6 | 0.00 | 0.00 | 0.00 | 97 | 1020.3 |
| 20260906125516 | 63 | 0 | 0.0 | 2.6 | 0.00 | 0.00 | 0.00 | 97 | 1020.3 |
| 20260906125019 | 63 | 0 | 0.9 | 3.5 | 0.00 | 0.00 | 0.00 | 97 | 1020.3 |
| 20260906124539 | 63 | 331 | 1.7 | 3.5 | 0.00 | 0.00 | 0.00 | 97 | 1020.2 |
| 20260906124017 | 63 | 348 | 0.9 | 3.5 | 0.00 | 0.00 | 0.00 | 97 | 1020.1 |
| 20260906123518 | 62 | 0 | 0.0 | 3.5 | 0.00 | 0.00 | 0.00 | 97 | 1020.1 |
| 20260906123037 | 62 | 347 | 0.9 | 3.5 | 0.00 | 0.00 | 0.00 | 97 | 1020.0 |
| 20260906122518 | 62 | 349 | 1.7 | 3.5 | 0.00 | 0.00 | 0.00 | 97 | 1020.1 |
| 20260906122022 | 62 | 348 | 2.6 | 4.3 | 0.00 | 0.00 | 0.00 | 97 | 1020.1 |
| 20260906121535 | 61 | 332 | 2.6 | 4.3 | 0.00 | 0.00 | 0.00 | 96 | 1020.0 |
| 20260906121021 | 61 | 340 | 2.6 | 4.3 | 0.00 | 0.00 | 0.00 | 96 | 1019.8 |
| 20260906120518 | 61 | 345 | 0.9 | 3.5 | 0.00 | 0.00 | 0.00 | 96 | 1019.7 |
| 20260906120036 | 61 | 0 | 0.0 | 0.0 | 0.00 | 0.00 | 0.00 | 96 | 1019.6 |
| 20260906115520 | 61 | 0 | 0.0 | 0.0 | 0.00 | 0.00 | 0.00 | 96 | 1019.5 |
| 20260906115016 | 61 | 0 | 0.0 | 1.7 | 0.00 | 0.00 | 0.00 | 96 | 1019.5 |
| 20260906114536 | 62 | 0 | 0.0 | 2.6 | 0.00 | 0.00 | 0.00 | 96 | 1019.5 |
| 20260906114018 | 62 | 0 | 0.9 | 3.5 | 0.00 | 0.00 | 0.00 | 96 | 1019.5 |
| 20260906113518 | 62 | 11 | 0.9 | 4.3 | 0.00 | 0.00 | 0.00 | 96 | 1019.3 |
| 20260906113034 | 62 | 33 | 1.7 | 4.3 | 0.00 | 0.00 | 0.00 | 97 | 1019.2 |
| 20260906112518 | 62 | 28 | 2.6 | 3.5 | 0.00 | 0.00 | 0.00 | 96 | 1019.2 |
| 20260906112018 | 62 | 23 | 1.7 | 3.5 | 0.00 | 0.00 | 0.00 | 96 | 1019.1 |
| 20260906111538 | 62 | 21 | 1.7 | 3.5 | 0.00 | 0.00 | 0.00 | 96 | 1019.1 |
| 20260906111020 | 62 | 23 | 1.7 | 3.5 | 0.00 | 0.00 | 0.00 | 96 | 1019.2 |
| 20260906110521 | 62 | 36 | 1.7 | 3.5 | 0.00 | 0.00 | 0.00 | 96 | 1019.2 |
| 20260906110035 | 62 | 25 | 1.7 | 4.3 | 0.00 | 0.00 | 0.00 | 96 | 1019.1 |
| 20260906105520 | 62 | 26 | 2.6 | 4.3 | 0.00 | 0.00 | 0.00 | 96 | 1019.0 |
| 20260906105020 | 62 | 45 | 1.7 | 4.3 | 0.00 | 0.00 | 0.00 | 96 | 1019.1 |
| 20260906104538 | 62 | 46 | 1.7 | 3.5 | 0.00 | 0.00 | 0.00 | 96 | 1019.0 |
| 20260906104019 | 62 | 16 | 1.7 | 3.5 | 0.00 | 0.00 | 0.00 | 96 | 1019.3 |
| 20260906103519 | 62 | 19 | 1.7 | 3.5 | 0.00 | 0.00 | 0.00 | 96 | 1019.1 |
| 20260906103034 | 62 | 360 | 2.6 | 3.5 | 0.00 | 0.00 | 0.00 | 96 | 1019.2 |
| 20260906102516 | 62 | 14 | 1.7 | 4.3 | 0.00 | 0.00 | 0.00 | 96 | 1019.1 |
| 20260906102018 | 62 | 33 | 1.7 | 4.3 | 0.00 | 0.00 | 0.00 | 96 | 1019.0 |
| 20260906101537 | 62 | 30 | 1.7 | 4.3 | 0.00 | 0.00 | 0.00 | 96 | 1019.0 |
| 20260906101020 | 62 | 36 | 2.6 | 4.3 | 0.00 | 0.00 | 0.00 | 96 | 1019.1 |
| 20260906100523 | 62 | 360 | 2.6 | 3.5 | 0.00 | 0.00 | 0.00 | 96 | 1019.0 |
| 20260906100036 | 61 | 25 | 2.6 | 3.5 | 0.00 | 0.00 | 0.00 | 96 | 1019.0 |
| 20260906095520 | 62 | 5 | 1.7 | 3.5 | 0.00 | 0.00 | 0.00 | 96 | 1018.9 |
| 20260906095018 | 62 | 350 | 1.7 | 2.6 | 0.00 | 0.00 | 0.00 | 96 | 1018.8 |
| 20260906094534 | 62 | 348 | 0.9 | 2.6 | 0.00 | 0.00 | 0.00 | 96 | 1018.8 |
| 20260906094015 | 62 | 340 | 0.9 | 2.6 | 0.00 | 0.00 | 0.00 | 96 | 1018.6 |
| 20260906093519 | 62 | 263 | 0.0 | 2.6 | 0.00 | 0.00 | 0.00 | 96 | 1018.7 |
| 20260906093046 | 62 | 18 | 0.0 | 3.5 | 0.00 | 0.00 | 0.00 | 96 | 1018.7 |
| 20260906092524 | 62 | 360 | 1.7 | 3.5 | 0.00 | 0.00 | 0.00 | 96 | 1018.7 |
| 20260906092022 | 62 | 19 | 1.7 | 3.5 | 0.00 | 0.00 | 0.00 | 96 | 1018.7 |
| 20260906091535 | 62 | 360 | 2.6 | 3.5 | 0.00 | 0.00 | 0.00 | 96 | 1018.6 |
| 20260906091018 | 62 | 5 | 1.7 | 3.5 | 0.00 | 0.00 | 0.00 | 96 | 1018.6 |
| 20260906090524 | 62 | 15 | 1.7 | 3.5 | 0.00 | 0.00 | 0.00 | 96 | 1018.5 |
| 20260906090035 | 62 | 24 | 1.7 | 3.5 | 0.00 | 0.00 | 0.00 | 96 | 1018.5 |
| 20260906085517 | 62 | 11 | 0.9 | 2.6 | 0.00 | 0.00 | 0.00 | 96 | 1018.6 |
| 20260906085016 | 62 | 5 | 1.7 | 2.6 | 0.00 | 0.00 | 0.00 | 96 | 1018.5 |
| 20260906084640 | 62 | 30 | 1.7 | 2.6 | 0.00 | 0.00 | 0.00 | 96 | 1018.6 |
| 20260906084019 | 62 | 0 | 0.0 | 0.0 | 0.00 | 0.00 | 0.00 | 96 | 1018.5 |
| 20260906083518 | 62 | 0 | 0.0 | 0.0 | 0.00 | 0.00 | 0.00 | 96 | 1018.5 |
| 20260906083035 | 62 | 0 | 0.0 | 0.0 | 0.00 | 0.00 | 0.00 | 95 | 1018.5 |
| 20260906082520 | 63 | 0 | 0.0 | 0.0 | 0.00 | 0.00 | 0.00 | 96 | 1018.5 |
| 20260906082022 | 63 | 0 | 0.0 | 0.0 | 0.00 | 0.00 | 0.00 | 96 | 1018.6 |
| 20260906081536 | 63 | 0 | 0.0 | 0.0 | 0.00 | 0.00 | 0.00 | 96 | 1018.6 |
| 20260906081021 | 63 | 0 | 0.0 | 0.0 | 0.00 | 0.00 | 0.00 | 95 | 1018.6 |
| 20260906080519 | 63 | 0 | 0.0 | 0.0 | 0.00 | 0.00 | 0.00 | 95 | 1018.6 |
| 20260906080049 | 64 | 0 | 0.0 | 0.0 | 0.00 | 0.00 | 0.00 | 96 | 1018.7 |
| 20260906075519 | 63 | 0 | 0.0 | 0.0 | 0.00 | 0.00 | 0.00 | 96 | 1018.8 |
| 20260906075016 | 63 | 0 | 0.0 | 0.0 | 0.00 | 0.00 | 0.00 | 96 | 1018.7 |
| 20260906074537 | 63 | 0 | 0.0 | 0.0 | 0.00 | 0.00 | 0.00 | 96 | 1018.7 |
| 20260906074016 | 63 | 0 | 0.0 | 0.0 | 0.00 | 0.00 | 0.00 | 96 | 1018.7 |
| 20260906073520 | 63 | 0 | 0.0 | 0.0 | 0.00 | 0.00 | 0.00 | 95 | 1018.6 |
| 20260906073038 | 63 | 0 | 0.0 | 0.0 | 0.00 | 0.00 | 0.00 | 96 | 1018.6 |
| 20260906072519 | 63 | 0 | 0.0 | 0.0 | 0.00 | 0.00 | 0.00 | 95 | 1018.7 |
| 20260906072024 | 63 | 0 | 0.0 | 0.0 | 0.00 | 0.00 | 0.00 | 96 | 1018.7 |
| 20260906071534 | 63 | 0 | 0.0 | 0.0 | 0.00 | 0.00 | 0.00 | 95 | 1018.7 |
| 20260906071021 | 64 | 0 | 0.0 | 0.0 | 0.00 | 0.00 | 0.00 | 95 | 1018.9 |
| 20260906070520 | 64 | 0 | 0.0 | 0.0 | 0.00 | 0.00 | 0.00 | 95 | 1018.9 |
| 20260906070039 | 64 | 0 | 0.0 | 0.0 | 0.00 | 0.00 | 0.00 | 95 | 1018.9 |
| 20260906065520 | 64 | 0 | 0.0 | 0.0 | 0.00 | 0.00 | 0.00 | 95 | 1018.8 |
| 20260906065020 | 64 | 0 | 0.0 | 0.0 | 0.00 | 0.00 | 0.00 | 95 | 1018.9 |
| 20260906064536 | 64 | 0 | 0.0 | 0.0 | 0.00 | 0.00 | 0.00 | 95 | 1019.0 |
| 20260906064018 | 65 | 0 | 0.0 | 0.0 | 0.00 | 0.00 | 0.00 | 95 | 1018.9 |
| 20260906063519 | 65 | 0 | 0.0 | 0.0 | 0.00 | 0.00 | 0.00 | 95 | 1018.9 |
| 20260906063040 | 65 | 0 | 0.0 | 0.0 | 0.00 | 0.00 | 0.00 | 95 | 1018.9 |
| 20260906062521 | 65 | 0 | 0.0 | 0.0 | 0.00 | 0.00 | 0.00 | 95 | 1018.9 |
| 20260906062021 | 65 | 0 | 0.0 | 0.0 | 0.00 | 0.00 | 0.00 | 95 | 1019.1 |
| 20260906061539 | 65 | 0 | 0.0 | 0.0 | 0.00 | 0.00 | 0.00 | 95 | 1019.1 |
| 20260906061020 | 65 | 0 | 0.0 | 0.0 | 0.00 | 0.00 | 0.00 | 95 | 1019.1 |
| 20260906060524 | 65 | 0 | 0.0 | 1.7 | 0.00 | 0.00 | 0.00 | 95 | 1019.1 |
| 20260906060042 | 65 | 0 | 0.0 | 2.6 | 0.00 | 0.00 | 0.00 | 95 | 1019.1 |
| 20260906055519 | 65 | 348 | 0.9 | 2.6 | 0.00 | 0.00 | 0.00 | 95 | 1019.0 |
| 20260906055016 | 65 | 28 | 1.7 | 3.5 | 0.00 | 0.00 | 0.00 | 95 | 1018.8 |
| 20260906054535 | 65 | 32 | 1.7 | 4.3 | 0.00 | 0.00 | 0.00 | 95 | 1018.7 |
| 20260906054016 | 66 | 27 | 1.7 | 4.3 | 0.00 | 0.00 | 0.00 | 95 | 1018.6 |
| 20260906053517 | 66 | 69 | 2.6 | 4.3 | 0.00 | 0.00 | 0.00 | 95 | 1018.6 |
| 20260906053036 | 66 | 38 | 2.6 | 4.3 | 0.00 | 0.00 | 0.00 | 95 | 1018.6 |
| 20260906052518 | 66 | 72 | 1.7 | 4.3 | 0.00 | 0.00 | 0.00 | 95 | 1018.5 |
| 20260906052022 | 66 | 46 | 1.7 | 4.3 | 0.00 | 0.00 | 0.00 | 95 | 1018.5 |
| 20260906051542 | 66 | 24 | 1.7 | 4.3 | 0.00 | 0.00 | 0.00 | 95 | 1018.5 |
| 20260906051021 | 66 | 44 | 2.6 | 4.3 | 0.00 | 0.00 | 0.00 | 95 | 1018.6 |
| 20260906050521 | 66 | 15 | 2.6 | 4.3 | 0.00 | 0.00 | 0.00 | 94 | 1018.6 |
| 20260906050041 | 66 | 28 | 2.6 | 3.5 | 0.00 | 0.00 | 0.00 | 94 | 1018.6 |
| 20260906045520 | 66 | 19 | 1.7 | 3.5 | 0.00 | 0.00 | 0.00 | 94 | 1018.5 |
| 20260906045018 | 66 | 15 | 1.7 | 3.5 | 0.00 | 0.00 | 0.00 | 94 | 1018.4 |
| 20260906044536 | 66 | 42 | 0.9 | 2.6 | 0.00 | 0.00 | 0.00 | 94 | 1018.3 |
| 20260906044019 | 66 | 30 | 0.9 | 2.6 | 0.00 | 0.00 | 0.00 | 94 | 1018.2 |
| 20260906043518 | 66 | 59 | 1.7 | 3.5 | 0.00 | 0.00 | 0.00 | 94 | 1018.1 |
| 20260906043036 | 66 | 44 | 1.7 | 4.3 | 0.00 | 0.00 | 0.00 | 94 | 1018.1 |
| 20260906042520 | 66 | 18 | 2.6 | 4.3 | 0.00 | 0.00 | 0.00 | 94 | 1018.2 |
| 20260906042021 | 67 | 38 | 2.6 | 3.5 | 0.00 | 0.00 | 0.00 | 94 | 1018.2 |
| 20260906041545 | 67 | 24 | 2.6 | 3.5 | 0.00 | 0.00 | 0.00 | 93 | 1018.2 |
| 20260906041020 | 67 | 39 | 1.7 | 3.5 | 0.00 | 0.00 | 0.00 | 93 | 1018.2 |
| 20260906040523 | 67 | 42 | 1.7 | 3.5 | 0.00 | 0.00 | 0.00 | 93 | 1018.1 |
| 20260906040044 | 67 | 30 | 2.6 | 3.5 | 0.00 | 0.00 | 0.00 | 93 | 1018.1 |
| 20260906035519 | 67 | 34 | 1.7 | 3.5 | 0.00 | 0.00 | 0.00 | 93 | 1018.0 |
| 20260906035018 | 67 | 21 | 2.6 | 3.5 | 0.00 | 0.00 | 0.00 | 93 | 1018.0 |
| 20260906034537 | 67 | 264 | 1.7 | 3.5 | 0.00 | 0.00 | 0.00 | 93 | 1018.1 |
| 20260906034024 | 68 | 5 | 2.6 | 3.5 | 0.00 | 0.00 | 0.00 | 93 | 1018.1 |
| 20260906033518 | 68 | 243 | 2.6 | 3.5 | 0.00 | 0.00 | 0.00 | 93 | 1018.1 |
| 20260906033036 | 68 | 9 | 0.0 | 2.6 | 0.00 | 0.00 | 0.00 | 93 | 1018.1 |
| 20260906032521 | 68 | 0 | 0.0 | 3.5 | 0.00 | 0.00 | 0.00 | 93 | 1017.8 |
| 20260906032020 | 68 | 0 | 0.0 | 4.3 | 0.00 | 0.00 | 0.00 | 93 | 1017.8 |
| 20260906031534 | 69 | 25 | 1.7 | 4.3 | 0.00 | 0.00 | 0.00 | 93 | 1017.7 |
| 20260906031018 | 69 | 26 | 2.6 | 7.8 | 0.00 | 0.00 | 0.00 | 93 | 1017.6 |
| 20260906030519 | 69 | 44 | 3.5 | 7.8 | 0.00 | 0.00 | 0.00 | 93 | 1017.7 |
| 20260906030040 | 69 | 44 | 2.6 | 7.0 | 0.00 | 0.00 | 0.00 | 93 | 1017.5 |
| 20260906025522 | 69 | 35 | 3.5 | 7.8 | 0.00 | 0.00 | 0.00 | 93 | 1017.5 |
| 20260906025022 | 69 | 62 | 2.6 | 7.8 | 0.00 | 0.00 | 0.00 | 93 | 1017.5 |
| 20260906024538 | 69 | 65 | 2.6 | 9.6 | 0.00 | 0.00 | 0.00 | 93 | 1017.5 |
| 20260906024021 | 69 | 91 | 4.3 | 9.6 | 0.00 | 0.00 | 0.00 | 93 | 1017.3 |
| 20260906023520 | 69 | 67 | 4.3 | 9.6 | 0.00 | 0.00 | 0.00 | 93 | 1017.1 |
| 20260906023043 | 69 | 99 | 4.3 | 9.6 | 0.00 | 0.00 | 0.00 | 93 | 1017.1 |
| 20260906022518 | 69 | 54 | 3.5 | 8.7 | 0.00 | 0.00 | 0.00 | 92 | 1017.1 |
| 20260906022021 | 69 | 65 | 2.6 | 7.0 | 0.00 | 0.00 | 0.00 | 92 | 1017.1 |
| 20260906021537 | 69 | 66 | 3.5 | 6.1 | 0.00 | 0.00 | 0.00 | 92 | 1016.9 |
| 20260906021020 | 69 | 46 | 2.6 | 7.8 | 0.00 | 0.00 | 0.00 | 92 | 1016.9 |
| 20260906020520 | 70 | 68 | 3.5 | 9.6 | 0.00 | 0.00 | 0.00 | 92 | 1016.8 |
| 20260906020038 | 70 | 84 | 4.3 | 9.6 | 0.00 | 0.00 | 0.00 | 91 | 1016.8 |
| 20260906015521 | 70 | 76 | 4.3 | 9.6 | 0.00 | 0.00 | 0.00 | 91 | 1016.7 |
| 20260906015021 | 70 | 78 | 5.2 | 9.6 | 0.00 | 0.00 | 0.00 | 91 | 1016.8 |
| 20260906014544 | 70 | 57 | 4.3 | 8.7 | 0.00 | 0.00 | 0.00 | 90 | 1016.9 |
| 20260906014021 | 70 | 69 | 4.3 | 8.7 | 0.00 | 0.00 | 0.00 | 90 | 1016.9 |
| 20260906013519 | 71 | 103 | 3.5 | 8.7 | 0.00 | 0.00 | 0.00 | 90 | 1016.8 |
| 20260906013034 | 71 | 51 | 4.3 | 8.7 | 0.00 | 0.00 | 0.00 | 89 | 1017.0 |
| 20260906012516 | 71 | 104 | 3.5 | 7.8 | 0.00 | 0.00 | 0.00 | 89 | 1016.9 |
| 20260906012016 | 71 | 109 | 4.3 | 7.8 | 0.00 | 0.00 | 0.00 | 88 | 1016.8 |
| 20260906011538 | 71 | 61 | 3.5 | 7.8 | 0.00 | 0.00 | 0.00 | 88 | 1016.9 |
| 20260906011018 | 72 | 99 | 3.5 | 7.8 | 0.00 | 0.00 | 0.00 | 88 | 1016.9 |
| 20260906010518 | 72 | 74 | 4.3 | 8.7 | 0.00 | 0.00 | 0.00 | 87 | 1016.8 |
| 20260906010039 | 72 | 68 | 3.5 | 9.6 | 0.00 | 0.00 | 0.00 | 87 | 1016.9 |
| 20260906005521 | 72 | 80 | 4.3 | 9.6 | 0.00 | 0.00 | 0.00 | 87 | 1016.8 |
| 20260906005024 | 73 | 46 | 4.3 | 8.7 | 0.00 | 0.00 | 0.00 | 87 | 1016.8 |
| 20260906004539 | 73 | 86 | 5.2 | 8.7 | 0.00 | 0.00 | 0.00 | 87 | 1016.7 |
| 20260906004025 | 73 | 63 | 4.3 | 8.7 | 0.00 | 0.00 | 0.00 | 86 | 1016.7 |
| 20260906003520 | 73 | 69 | 2.6 | 8.7 | 0.00 | 0.00 | 0.00 | 86 | 1016.5 |
| 20260906003034 | 74 | 54 | 3.5 | 10.4 | 0.00 | 0.00 | 0.00 | 85 | 1016.4 |
| 20260906002519 | 74 | 107 | 5.2 | 10.4 | 0.00 | 0.00 | 0.00 | 85 | 1016.4 |
| 20260906002016 | 74 | 46 | 6.1 | 9.6 | 0.00 | 0.00 | 0.00 | 84 | 1016.5 |
| 20260906001537 | 75 | 71 | 5.2 | 12.2 | 0.00 | 0.00 | 0.00 | 84 | 1016.7 |
| 20260906001021 | 75 | 20 | 7.0 | 12.2 | 0.00 | 0.00 | 0.00 | 83 | 1016.6 |
| 20260906000527 | 75 | 82 | 7.8 | 13.0 | 0.00 | 0.00 | 0.00 | 83 | 1016.5 |
| 20260906000040 | 76 | 22 | 7.8 | 13.0 | 0.00 | 0.00 | 0.00 | 83 | 1016.6 |
| 20260905235520 | 76 | 55 | 7.8 | 13.9 | 0.00 | 0.00 | 0.00 | 82 | 1016.5 |
| 20260905235020 | 77 | 17 | 9.6 | 13.9 | 0.00 | 0.00 | 0.00 | 82 | 1016.5 |
| 20260905234536 | 77 | 37 | 5.2 | 11.3 | 0.00 | 0.00 | 0.00 | 82 | 1016.6 |
| 20260905234023 | 77 | 41 | 6.1 | 10.4 | 0.00 | 0.00 | 0.00 | 82 | 1016.6 |
| 20260905233520 | 78 | 27 | 5.2 | 11.3 | 0.00 | 0.00 | 0.00 | 82 | 1016.5 |
| 20260905233042 | 78 | 360 | 7.0 | 11.3 | 0.00 | 0.00 | 0.00 | 81 | 1016.5 |
| 20260905232520 | 79 | 19 | 7.0 | 12.2 | 0.00 | 0.00 | 0.00 | 80 | 1016.5 |
| 20260905232021 | 79 | 25 | 5.2 | 13.0 | 0.00 | 0.00 | 0.00 | 79 | 1016.4 |
| 20260905231549 | 79 | 23 | 9.6 | 13.0 | 0.00 | 0.00 | 0.00 | 79 | 1016.3 |
| 20260905231019 | 79 | 343 | 7.8 | 11.3 | 0.00 | 0.00 | 0.00 | 79 | 1016.3 |
| 20260905230524 | 79 | 344 | 7.8 | 13.9 | 0.00 | 0.00 | 0.00 | 79 | 1016.2 |
| 20260905230043 | 79 | 360 | 7.8 | 13.9 | 0.00 | 0.00 | 0.00 | 77 | 1016.1 |
| 20260905225520 | 80 | 12 | 8.7 | 13.0 | 0.00 | 0.00 | 0.00 | 77 | 1016.1 |
| 20260905225020 | 80 | 5 | 6.1 | 11.3 | 0.00 | 0.00 | 0.00 | 78 | 1015.9 |
| 20260905224539 | 80 | 346 | 5.2 | 13.0 | 0.00 | 0.00 | 0.00 | 78 | 1015.9 |
| 20260905224019 | 80 | 15 | 8.7 | 13.0 | 0.00 | 0.00 | 0.00 | 77 | 1015.9 |
| 20260905223518 | 80 | 344 | 7.0 | 12.2 | 0.00 | 0.00 | 0.00 | 77 | 1016.0 |
| 20260905223038 | 80 | 294 | 8.7 | 12.2 | 0.00 | 0.00 | 0.00 | 77 | 1016.1 |
| 20260905222529 | 80 | 21 | 5.2 | 9.6 | 0.00 | 0.00 | 0.00 | 78 | 1016.1 |
| 20260905222026 | 79 | 15 | 7.0 | 10.4 | 0.00 | 0.00 | 0.00 | 77 | 1016.1 |
| 20260905221540 | 80 | 31 | 6.1 | 10.4 | 0.00 | 0.00 | 0.00 | 77 | 1016.0 |
| 20260905221024 | 80 | 20 | 6.1 | 13.0 | 0.00 | 0.00 | 0.00 | 77 | 1016.0 |
| 20260905220524 | 80 | 11 | 8.7 | 13.0 | 0.00 | 0.00 | 0.00 | 75 | 1016.0 |
| 20260905220038 | 80 | 56 | 6.1 | 13.9 | 0.00 | 0.00 | 0.00 | 76 | 1015.9 |
| 20260905215519 | 80 | 344 | 8.7 | 13.9 | 0.00 | 0.00 | 0.00 | 77 | 1015.9 |
| 20260905215017 | 80 | 348 | 8.7 | 13.9 | 0.00 | 0.00 | 0.00 | 76 | 1015.8 |
| 20260905214538 | 81 | 13 | 8.7 | 13.9 | 0.00 | 0.00 | 0.00 | 75 | 1015.7 |
| 20260905214018 | 81 | 25 | 5.2 | 12.2 | 0.00 | 0.00 | 0.00 | 75 | 1015.7 |
| 20260905213520 | 81 | 10 | 5.2 | 12.2 | 0.00 | 0.00 | 0.00 | 76 | 1015.8 |
| 20260905213037 | 80 | 5 | 7.0 | 14.8 | 0.00 | 0.00 | 0.00 | 76 | 1015.8 |
| 20260905212520 | 80 | 337 | 9.6 | 14.8 | 0.00 | 0.00 | 0.00 | 74 | 1015.8 |
| 20260905212026 | 80 | 9 | 7.0 | 13.0 | 0.00 | 0.00 | 0.00 | 76 | 1015.8 |
| 20260905211535 | 80 | 5 | 7.8 | 13.0 | 0.00 | 0.00 | 0.00 | 75 | 1015.8 |
| 20260905211020 | 80 | 334 | 5.2 | 9.6 | 0.00 | 0.00 | 0.00 | 76 | 1015.9 |
| 20260905210520 | 79 | 21 | 3.5 | 12.2 | 0.00 | 0.00 | 0.00 | 77 | 1016.1 |
| 20260905210035 | 80 | 24 | 8.7 | 13.0 | 0.00 | 0.00 | 0.00 | 74 | 1016.2 |
| 20260905205519 | 81 | 21 | 3.5 | 13.0 | 0.00 | 0.00 | 0.00 | 76 | 1016.1 |
| 20260905205023 | 80 | 54 | 5.2 | 11.3 | 0.00 | 0.00 | 0.00 | 76 | 1016.2 |
| 20260905204537 | 79 | 338 | 7.8 | 11.3 | 0.00 | 0.00 | 0.00 | 77 | 1016.2 |
| 20260905204022 | 79 | 246 | 6.1 | 13.9 | 0.00 | 0.00 | 0.00 | 78 | 1016.2 |
| 20260905203521 | 79 | 360 | 9.6 | 13.9 | 0.00 | 0.00 | 0.00 | 79 | 1016.2 |
| 20260905203040 | 80 | 360 | 7.0 | 10.4 | 0.00 | 0.00 | 0.00 | 80 | 1016.1 |
| 20260905202520 | 79 | 340 | 7.0 | 10.4 | 0.00 | 0.00 | 0.00 | 78 | 1016.2 |
| 20260905202020 | 79 | 19 | 5.2 | 9.6 | 0.00 | 0.00 | 0.00 | 80 | 1016.2 |
| 20260905201536 | 78 | 24 | 7.0 | 12.2 | 0.00 | 0.00 | 0.00 | 80 | 1016.2 |
| 20260905201017 | 79 | 273 | 7.0 | 13.0 | 0.00 | 0.00 | 0.00 | 81 | 1016.2 |
| 20260905200518 | 79 | 341 | 7.8 | 13.0 | 0.00 | 0.00 | 0.00 | 80 | 1016.2 |
| 20260905200033 | 80 | 15 | 5.2 | 8.7 | 0.00 | 0.00 | 0.00 | 78 | 1016.2 |
| 20260905195516 | 79 | 338 | 3.5 | 9.6 | 0.00 | 0.00 | 0.00 | 81 | 1016.3 |
| 20260905195016 | 78 | 12 | 7.0 | 9.6 | 0.00 | 0.00 | 0.00 | 81 | 1016.3 |
| 20260905194538 | 78 | 332 | 7.0 | 12.2 | 0.00 | 0.00 | 0.00 | 83 | 1016.3 |
| 20260905194020 | 78 | 340 | 7.8 | 12.2 | 0.00 | 0.00 | 0.00 | 83 | 1016.3 |
| 20260905193519 | 77 | 360 | 7.0 | 12.2 | 0.00 | 0.00 | 0.00 | 84 | 1016.3 |
| 20260905193035 | 77 | 342 | 3.5 | 7.0 | 0.00 | 0.00 | 0.00 | 84 | 1016.3 |
| 20260905192525 | 77 | 65 | 2.6 | 7.0 | 0.00 | 0.00 | 0.00 | 85 | 1016.3 |
| 20260905192020 | 76 | 13 | 4.3 | 8.7 | 0.00 | 0.00 | 0.00 | 87 | 1016.4 |
| 20260905191537 | 75 | 46 | 4.3 | 11.3 | 0.00 | 0.00 | 0.00 | 87 | 1016.4 |
| 20260905191019 | 75 | 34 | 7.0 | 11.3 | 0.00 | 0.00 | 0.00 | 87 | 1016.5 |
| 20260905190522 | 76 | 5 | 7.0 | 11.3 | 0.00 | 0.00 | 0.00 | 87 | 1016.4 |
| 20260905190056 | 76 | 250 | 5.2 | 9.6 | 0.00 | 0.00 | 0.00 | 87 | 1016.5 |
| 20260905185535 | 76 | 262 | 4.3 | 8.7 | 0.00 | 0.00 | 0.00 | 87 | 1016.6 |
| 20260905185016 | 76 | 28 | 6.1 | 10.4 | 0.00 | 0.00 | 0.00 | 87 | 1016.6 |
| 20260905184557 | 75 | 5 | 5.2 | 10.4 | 0.00 | 0.00 | 0.00 | 87 | 1016.7 |
| 20260905184021 | 75 | 360 | 6.1 | 9.6 | 0.00 | 0.00 | 0.00 | 88 | 1016.7 |
| 20260905183520 | 75 | 5 | 4.3 | 9.6 | 0.00 | 0.00 | 0.00 | 88 | 1016.7 |
| 20260905183039 | 75 | 69 | 5.2 | 11.3 | 0.00 | 0.00 | 0.00 | 88 | 1016.7 |
| 20260905182522 | 75 | 5 | 7.8 | 12.2 | 0.00 | 0.00 | 0.00 | 88 | 1016.7 |
| 20260905182021 | 75 | 21 | 8.7 | 12.2 | 0.00 | 0.00 | 0.00 | 88 | 1016.7 |
| 20260905181534 | 75 | 5 | 7.8 | 11.3 | 0.00 | 0.00 | 0.00 | 88 | 1016.7 |
| 20260905181019 | 75 | 350 | 7.8 | 11.3 | 0.00 | 0.00 | 0.00 | 88 | 1016.8 |
| 20260905180517 | 75 | 344 | 7.0 | 11.3 | 0.00 | 0.00 | 0.00 | 88 | 1016.7 |
| 20260905180035 | 75 | 319 | 7.8 | 11.3 | 0.00 | 0.00 | 0.00 | 88 | 1016.7 |
| 20260905175519 | 75 | 340 | 8.7 | 11.3 | 0.00 | 0.00 | 0.00 | 88 | 1016.7 |
| 20260905175020 | 75 | 15 | 7.8 | 12.2 | 0.00 | 0.00 | 0.00 | 89 | 1016.7 |
| 20260905174545 | 75 | 10 | 7.0 | 12.2 | 0.00 | 0.00 | 0.00 | 89 | 1016.6 |
| 20260905174018 | 75 | 14 | 7.0 | 12.2 | 0.00 | 0.00 | 0.00 | 89 | 1016.7 |
| 20260905173520 | 75 | 286 | 5.2 | 12.2 | 0.00 | 0.00 | 0.00 | 89 | 1016.7 |
| 20260905173039 | 75 | 34 | 7.8 | 12.2 | 0.00 | 0.00 | 0.00 | 89 | 1016.7 |
| 20260905172520 | 75 | 360 | 7.0 | 11.3 | 0.00 | 0.00 | 0.00 | 89 | 1016.8 |
| 20260905172020 | 75 | 348 | 7.0 | 11.3 | 0.00 | 0.00 | 0.00 | 89 | 1016.7 |
| 20260905171536 | 75 | 32 | 7.8 | 11.3 | 0.00 | 0.00 | 0.00 | 89 | 1016.7 |
| 20260905171019 | 75 | 12 | 8.7 | 11.3 | 0.00 | 0.00 | 0.00 | 90 | 1016.7 |
| 20260905170519 | 75 | 28 | 7.0 | 12.2 | 0.00 | 0.00 | 0.00 | 90 | 1016.8 |
| 20260905170037 | 75 | 40 | 7.0 | 12.2 | 0.00 | 0.00 | 0.00 | 90 | 1016.8 |
| 20260905165518 | 74 | 19 | 7.8 | 12.2 | 0.00 | 0.00 | 0.00 | 90 | 1016.7 |
| 20260905165018 | 75 | 290 | 8.7 | 12.2 | 0.00 | 0.00 | 0.00 | 89 | 1016.8 |
| 20260905164540 | 75 | 35 | 6.1 | 11.3 | 0.00 | 0.00 | 0.00 | 89 | 1016.8 |
| 20260905164019 | 75 | 13 | 7.0 | 12.2 | 0.00 | 0.00 | 0.00 | 89 | 1016.7 |
| 20260905163520 | 75 | 5 | 7.8 | 12.2 | 0.00 | 0.00 | 0.00 | 89 | 1016.7 |
| 20260905163039 | 76 | 28 | 6.1 | 11.3 | 0.00 | 0.00 | 0.00 | 88 | 1016.8 |
| 20260905162520 | 76 | 5 | 7.0 | 12.2 | 0.00 | 0.00 | 0.00 | 89 | 1016.7 |
| 20260905162020 | 76 | 44 | 8.7 | 12.2 | 0.00 | 0.00 | 0.00 | 88 | 1016.7 |
| 20260905161537 | 76 | 15 | 8.7 | 12.2 | 0.00 | 0.00 | 0.00 | 89 | 1016.7 |
| 20260905161020 | 76 | 41 | 7.8 | 10.4 | 0.00 | 0.00 | 0.00 | 89 | 1016.6 |
| 20260905160518 | 76 | 31 | 5.2 | 11.3 | 0.00 | 0.00 | 0.00 | 89 | 1016.6 |
| 20260905160035 | 75 | 75 | 4.3 | 11.3 | 0.00 | 0.00 | 0.00 | 89 | 1016.7 |
| 20260905155517 | 75 | 17 | 6.1 | 10.4 | 0.00 | 0.03 | 0.00 | 90 | 1016.7 |
| 20260905155018 | 75 | 337 | 6.1 | 9.6 | 0.00 | 0.03 | 0.00 | 91 | 1016.6 |
| 20260905154537 | 75 | 43 | 5.2 | 9.6 | 0.00 | 0.03 | 0.00 | 89 | 1016.5 |
| 20260905154019 | 75 | 45 | 7.0 | 8.7 | 0.00 | 0.03 | 0.00 | 90 | 1016.7 |
| 20260905153521 | 75 | 360 | 5.2 | 8.7 | 0.00 | 0.03 | 0.00 | 91 | 1016.6 |
| 20260905153037 | 75 | 63 | 3.5 | 8.7 | 0.00 | 0.03 | 0.00 | 91 | 1016.6 |
| 20260905152521 | 75 | 24 | 4.3 | 8.7 | 0.00 | 0.03 | 0.00 | 91 | 1016.5 |
| 20260905152020 | 74 | 9 | 5.2 | 8.7 | 0.00 | 0.03 | 0.00 | 91 | 1016.5 |
| 20260905151538 | 74 | 30 | 5.2 | 8.7 | 0.00 | 0.03 | 0.00 | 92 | 1016.4 |
| 20260905151023 | 74 | 5 | 5.2 | 9.6 | 0.00 | 0.03 | 0.00 | 91 | 1016.3 |
| 20260905150520 | 74 | 30 | 7.0 | 9.6 | 0.00 | 0.03 | 0.00 | 92 | 1016.2 |
| 20260905150035 | 74 | 29 | 3.5 | 7.8 | 0.00 | 0.03 | 0.00 | 93 | 1016.1 |
| 20260905145518 | 74 | 360 | 5.2 | 7.8 | 0.00 | 0.03 | 0.00 | 93 | 1016.2 |
| 20260905145018 | 73 | 29 | 1.7 | 5.2 | 0.00 | 0.03 | 0.00 | 93 | 1016.1 |
| 20260905144541 | 73 | 72 | 2.6 | 7.0 | 0.00 | 0.03 | 0.00 | 94 | 1016.0 |
| 20260905144021 | 73 | 28 | 2.6 | 7.8 | 0.00 | 0.03 | 0.00 | 93 | 1016.0 |
| 20260905143520 | 73 | 71 | 3.5 | 8.7 | 0.00 | 0.03 | 0.00 | 94 | 1015.8 |
| 20260905143038 | 72 | 74 | 4.3 | 8.7 | 0.00 | 0.03 | 0.00 | 94 | 1015.6 |
| 20260905142523 | 72 | 69 | 3.5 | 8.7 | 0.00 | 0.03 | 0.00 | 94 | 1015.7 |
| 20260905142019 | 72 | 51 | 4.3 | 8.7 | 0.00 | 0.03 | 0.00 | 94 | 1015.8 |
| 20260905141542 | 72 | 90 | 2.6 | 11.3 | 0.00 | 0.03 | 0.00 | 94 | 1015.8 |
| 20260905141020 | 72 | 88 | 5.2 | 11.3 | 0.00 | 0.03 | 0.00 | 94 | 1015.8 |
| 20260905140519 | 72 | 90 | 5.2 | 8.7 | 0.00 | 0.03 | 0.00 | 94 | 1015.7 |